Wind_Speed
27 30 30 32 31 32 34 35 33 34 33 32 33 34 31 32 31 27 26 29 26 24 24 20 22 21 19 27 34 31 37 38 34 35 37 38 39 38 38 42 40 47 46 49 50
34 33 33 34 34 37 37 36 31 33 32 33 34 34 35 34 31 29 25 25 26 30 27 23 21 21 21 21 24 34 33 32 33 29 31 32 45 41 35 38 37 36 38 49 41
37 38 37 37 39 40 40 37 31 32 34 36 35 40 38 34 34 32 29 29 25 27 27 29 23 19 24 28 24 21 35 34 30 34 32 29 36 33 28 37 32 40 43 40 41
38 38 40 41 42 43 41 37 35 35 38 39 38 40 43 46 39 38 35 31 30 28 28 28 29 29 21 24 28 19 20 24 30 30 33 38 37 35 38 33 47 44 42 39 42
37 39 39 42 43 44 43 39 38 40 42 41 45 48 46 43 40 39 40 36 32 31 30 29 30 33 30 24 25 22 20 19 23 36 34 31 37 35 34 39 39 41 43 47 50
37 37 41 39 44 45 43 44 45 47 48 50 50 51 53 48 46 43 42 42 39 36 35 31 32 32 35 32 28 24 21 22 17 20 35 43 43 47 46 49 52 45 48 48 49
38 40 43 46 47 51 50 52 53 55 56 56 55 55 57 51 54 51 48 45 45 45 41 38 35 35 36 36 34 30 23 24 21 20 21 28 40 45 47 50 49 53 53 53 52
43 45 45 49 50 51 52 52 54 55 58 61 62 60 59 59 58 57 56 51 48 48 50 46 42 39 40 35 34 34 30 23 24 25 21 24 24 33 40 45 47 43 43 42 41
46 46 46 46 44 49 47 49 45 48 53 57 58 63 65 65 64 62 60 59 56 55 53 55 51 45 47 44 35 35 38 31 27 26 25 25 25 28 34 40 39 40 38 38 36
59 56 54 51 51 52 51 53 53 61 65 66 63 65 64 65 67 67 69 65 65 64 60 60 58 55 54 48 46 42 41 38 34 28 25 27 28 23 31 35 37 34 34 35 35
62 64 60 56 57 53 56 63 66 69 74 73 74 68 69 65 70 75 76 72 69 72 72 64 59 63 61 50 50 48 44 41 41 31 29 29 31 26 25 31 35 33 32 36 34
69 70 68 63 66 69 72 78 78 76 83 85 84 72 77 71 68 75 78 80 78 77 78 72 68 71 64 57 52 51 46 45 40 34 32 30 33 31 26 28 35 36 33 33 32
63 64 65 70 74 69 78 87 90 86 81 87 89 82 78 76 70 74 77 80 80 77 78 78 77 75 67 62 57 53 46 49 42 38 32 31 38 35 28 25 29 36 34 34 32
73 71 83 68 78 86 91 98 100 100 96 93 84 88 92 86 76 77 79 80 81 83 77 75 77 79 77 66 58 48 52 46 41 40 36 31 40 39 31 28 30 30 34 32 35
91 77 88 92 98 97 102 112 114 110 105 100 95 93 93 89 86 86 84 81 80 81 80 74 73 77 76 70 61 52 55 50 44 40 38 38 34 47 34 32 31 30 30 32 33
95 105 102 105 105 110 117 120 119 116 112 108 103 101 99 93 91 84 83 83 79 77 74 74 71 73 72 71 68 58 55 52 45 42 38 43 34 49 40 35 31 32 30 32 33
96 107 109 115 114 121 127 125 126 121 119 116 118 112 103 97 93 86 82 83 80 79 70 64 72 69 72 70 68 62 59 56 54 46 41 43 38 48 44 39 34 30 32 33 34
105 111 116 117 123 131 135 129 125 121 120 121 119 112 104 97 91 85 80 80 78 78 75 75 68 65 64 64 66 65 65 63 55 49 46 45 40 47 46 42 39 33 30 34 35
121 127 129 127 131 132 132 129 129 124 122 117 112 107 100 96 89 86 83 79 79 80 80 76 70 66 70 69 67 65 64 64 60 51 48 46 45 51 47 44 43 37 32 33 36
131 134 132 134 135 135 133 131 125 117 113 110 106 101 96 92 93 85 84 83 83 81 82 79 77 71 72 73 70 67 69 66 61 53 50 52 50 54 48 46 45 42 34 30 33
133 134 135 135 134 130 126 122 112 108 104 103 100 96 93 90 91 89 84 83 85 83 83 82 85 81 80 76 74 74 73 68 64 57 53 55 54 56 52 48 47 45 42 33 29
136 132 136 135 125 113 111 104 102 99 100 100 96 94 89 89 87 87 84 85 82 83 85 86 85 86 83 81 80 80 77 75 69 59 57 55 56 57 54 51 49 48 44 41 31
133 134 133 113 106 106 103 96 97 95 94 97 95 89 87 84 85 82 80 80 83 82 83 90 84 87 88 86 85 85 80 77 75 69 59 54 56 61 59 57 54 49 46 44 40
136 124 113 104 101 105 102 97 97 93 89 88 87 85 81 79 79 72 74 77 80 81 81 84 85 88 92 92 89 90 85 77 74 72 60 49 63 63 64 60 58 50 45 43 42
126 116 106 102 99 104 102 99 92 89 85 79 78 77 79 72 72 67 68 71 74 76 79 80 82 89 92 97 94 90 90 86 77 71 64 60 62 73 70 69 61 52 49 47 43
119 114 105 101 98 101 102 95 85 83 76 74 73 73 73 69 67 67 65 65 68 71 75 77 80 86 86 94 99 97 90 84 82 71 66 68 64 65 70 67 63 58 54 50 45
116 112 100 93 91 94 95 85 79 74 70 65 68 65 65 70 65 61 62 61 63 66 69 75 78 81 86 89 99 96 80 87 81 79 70 71 69 73 65 65 64 61 57 51 50
Wind_Direction
294 297 304 307 308 312 315 321 320 323 321 317 322 329 335 337 338 339 346 355 350 352 351 353 357 343 311 260 252 253 254 262 263 260 257 245 245 250 254 257 256 253 255 266 267
291 291 295 299 303 307 311 318 313 315 311 315 319 321 323 330 327 330 325 333 339 343 341 339 344 343 349 343 277 261 261 254 262 261 257 258 245 249 249 254 248 250 256 264 264
294 295 297 299 302 306 310 313 311 305 307 308 309 311 315 318 316 317 322 315 321 323 331 333 330 332 330 341 336 294 268 270 259 263 256 244 247 241 262 257 241 249 253 264 272
298 301 301 303 303 305 307 304 302 302 301 303 304 306 308 310 312 312 311 313 308 310 316 320 323 327 317 329 337 327 295 281 252 253 255 246 236 237 263 260 249 250 264 262 265
299 301 301 301 299 301 302 295 297 299 298 296 299 302 305 305 306 308 309 306 305 308 300 309 315 315 315 312 322 326 329 323 270 254 250 247 249 250 241 236 244 256 259 260 265
295 300 302 303 304 304 298 295 302 305 303 303 303 301 301 301 295 298 301 303 296 300 301 302 303 306 308 305 309 310 314 323 319 286 255 258 255 246 244 250 254 257 258 266 272
302 303 304 304 302 300 301 302 301 299 299 300 300 300 297 297 294 295 294 293 293 291 293 290 293 296 300 299 306 300 299 308 310 324 307 276 263 254 248 254 259 260 263 265 269
292 291 293 295 294 295 295 299 297 298 298 296 295 295 291 292 289 287 289 290 290 284 287 288 288 290 289 295 296 297 290 292 297 308 309 298 301 277 264 260 264 269 263 254 252
289 285 286 287 294 294 290 295 300 301 302 302 299 296 290 288 286 283 281 283 285 286 282 282 284 286 282 283 291 289 288 290 283 295 301 301 309 280 274 268 265 262 262 253 246
286 285 283 283 292 294 291 305 301 307 308 313 306 301 295 289 286 286 278 275 281 282 281 282 282 283 278 278 283 285 287 288 285 284 289 294 301 302 276 271 264 265 257 254 256
285 285 282 280 288 299 301 308 310 314 311 310 309 305 295 297 288 285 279 275 270 277 277 275 282 279 275 278 279 280 280 278 282 282 278 287 294 301 289 264 262 264 255 253 259
287 288 278 276 280 288 302 313 306 304 312 310 307 305 300 297 293 280 273 272 273 271 273 273 271 274 274 273 273 274 274 274 276 277 267 282 281 293 297 273 265 262 256 255 257
283 292 296 287 276 297 304 313 310 309 306 308 305 303 299 295 289 282 277 271 269 268 268 267 268 270 273 270 269 267 268 269 272 273 268 272 273 282 291 289 270 259 259 258 262
291 299 299 298 299 298 305 311 310 306 310 309 304 299 299 296 291 283 278 275 270 266 265 262 265 266 267 266 266 262 264 266 263 267 270 265 263 271 286 286 286 266 254 255 257
316 308 310 310 311 308 308 307 307 307 309 305 298 297 295 292 289 287 281 272 268 267 262 262 263 264 266 267 261 252 256 257 256 259 266 260 256 264 275 279 288 279 260 260 259
312 317 312 312 309 308 306 305 305 306 308 303 300 297 295 290 286 281 277 272 268 262 260 259 257 260 261 261 260 249 253 251 254 258 254 251 256 257 264 267 277 281 262 255 257
308 310 310 309 307 305 304 304 304 305 304 301 299 295 292 288 284 279 272 269 265 257 255 246 255 254 255 259 260 254 247 249 250 250 243 249 254 250 256 260 266 272 269 256 256
308 305 304 304 302 302 304 303 304 302 299 298 296 291 290 287 282 278 274 266 262 253 248 245 247 244 244 244 245 244 250 256 250 244 236 240 242 250 251 254 257 262 268 258 257
305 304 302 300 302 302 301 301 301 299 295 293 290 287 285 283 280 276 272 263 258 253 246 244 238 243 239 239 241 243 246 247 247 243 238 235 234 246 248 248 252 254 261 264 259
303 302 302 300 300 299 298 298 296 292 289 288 286 285 284 280 276 271 266 263 259 253 246 240 238 235 238 240 237 236 240 243 245 240 234 228 227 240 244 248 249 249 249 260 261
300 300 300 300 299 297 296 294 291 288 286 285 284 282 279 274 271 269 265 260 255 253 248 241 236 232 233 235 235 233 235 235 235 233 229 226 225 233 238 242 247 250 249 250 258
302 301 301 300 297 294 294 293 289 286 286 284 283 281 277 273 269 266 262 259 255 251 247 245 240 233 233 233 234 234 230 231 230 233 228 227 227 230 237 239 242 244 247 249 252
302 301 301 297 294 295 293 291 287 287 286 286 283 279 275 271 268 264 262 258 255 250 246 244 242 237 233 231 230 233 231 231 232 227 227 224 222 226 233 237 238 239 243 246 247
299 300 299 298 297 296 295 292 290 289 285 282 282 280 276 273 270 265 261 257 253 249 244 242 241 238 236 232 226 230 231 229 229 227 223 221 219 226 228 232 234 234 239 243 245
300 300 299 298 298 296 294 291 290 287 285 284 280 278 274 270 267 263 257 253 251 248 246 242 239 237 233 233 229 227 231 229 225 226 223 215 215 221 225 228 229 230 234 236 241
299 298 298 299 297 295 291 290 290 287 286 283 280 275 272 270 265 261 253 249 249 245 244 242 238 236 233 232 230 229 226 230 229 225 217 214 213 224 227 230 228 226 230 232 234
297 296 296 296 294 290 288 289 288 287 285 279 274 270 269 263 260 257 255 248 245 244 242 242 239 236 230 230 230 231 228 230 231 227 220 217 213 221 225 229 231 228 229 229 229
Height
10877 10874 10872 10869 10866 10863 10859 10856 10853 10850 10847 10842 10839 10837 10835 10832 10829 10826 10823 10820 10817 10814 10812 10808 10805 10802 10799 10798 10798 10798 10798 10798 10800 10802 10804 10805 10808 10814 10817 10816 10822 10820 10822 10822 10823
10869 10867 10865 10863 10860 10858 10854 10852 10849 10846 10843 10839 10835 10833 10832 10830 10827 10825 10822 10818 10816 10813 10810 10807 10804 10801 10797 10794 10792 10792 10793 10792 10792 10794 10798 10799 10800 10805 10808 10810 10814 10813 10815 10815 10814
10864 10862 10859 10857 10854 10852 10849 10846 10843 10841 10838 10836 10832 10827 10826 10825 10823 10821 10819 10816 10813 10810 10808 10805 10802 10800 10796 10792 10788 10785 10786 10785 10788 10788 10789 10792 10794 10797 10800 10804 10806 10806 10808 10809 10808
10856 10854 10852 10850 10847 10845 10843 10841 10838 10836 10833 10830 10827 10823 10821 10819 10819 10817 10814 10812 10810 10807 10804 10802 10800 10797 10794 10790 10786 10782 10780 10780 10783 10783 10785 10785 10786 10788 10791 10798 10796 10798 10799 10801 10802
10849 10847 10844 10842 10839 10837 10835 10833 10832 10829 10826 10824 10821 10817 10814 10814 10812 10810 10808 10807 10804 10801 10799 10797 10795 10793 10790 10787 10785 10781 10778 10776 10776 10778 10779 10778 10780 10780 10785 10787 10786 10786 10790 10792 10792
10842 10839 10837 10834 10831 10829 10827 10826 10824 10822 10819 10816 10813 10810 10806 10806 10802 10802 10802 10799 10797 10796 10793 10791 10789 10788 10785 10783 10780 10778 10776 10773 10771 10770 10771 10772 10774 10772 10779 10776 10777 10780 10781 10781 10780
10836 10833 10830 10826 10823 10820 10820 10818 10815 10813 10811 10808 10805 10802 10797 10796 10792 10793 10793 10790 10788 10788 10786 10786 10783 10781 10779 10777 10774 10773 10771 10769 10766 10764 10763 10762 10762 10765 10768 10768 10769 10771 10772 10773 10772
10826 10824 10821 10818 10814 10811 10810 10808 10806 10803 10800 10798 10795 10792 10786 10785 10783 10780 10780 10779 10778 10776 10776 10775 10775 10773 10771 10771 10769 10766 10764 10763 10761 10760 10758 10756 10754 10757 10757 10759 10760 10760 10760 10762 10763
10817 10814 10812 10807 10803 10799 10798 10797 10795 10792 10789 10785 10782 10781 10773 10771 10769 10768 10766 10767 10765 10765 10765 10764 10764 10764 10760 10762 10762 10760 10756 10756 10755 10753 10751 10749 10749 10749 10749 10749 10749 10751 10751 10753 10754
10806 10802 10801 10796 10791 10788 10786 10784 10781 10777 10773 10772 10769 10765 10759 10757 10754 10751 10751 10752 10752 10751 10751 10750 10754 10753 10748 10752 10752 10751 10748 10748 10746 10746 10745 10743 10741 10743 10741 10742 10742 10743 10744 10744 10745
10792 10788 10787 10782 10778 10772 10768 10766 10765 10764 10757 10754 10751 10748 10738 10737 10737 10730 10729 10734 10735 10735 10732 10737 10741 10733 10734 10742 10739 10739 10740 10739 10737 10739 10737 10736 10734 10736 10735 10735 10734 10736 10736 10736 10738
10777 10772 10767 10763 10758 10754 10749 10743 10744 10745 10746 10731 10727 10729 10717 10718 10718 10706 10706 10711 10714 10715 10715 10720 10725 10714 10722 10726 10726 10728 10728 10728 10730 10732 10730 10730 10726 10727 10729 10727 10727 10727 10728 10729 10731
10758 10749 10747 10743 10740 10735 10731 10725 10719 10720 10728 10722 10701 10703 10699 10691 10696 10684 10684 10685 10689 10692 10692 10699 10701 10697 10703 10709 10712 10713 10716 10716 10720 10723 10723 10722 10716 10718 10722 10722 10720 10719 10721 10721 10722
10738 10729 10721 10718 10715 10709 10704 10697 10694 10694 10693 10698 10688 10675 10664 10663 10669 10665 10664 10660 10666 10669 10667 10678 10679 10677 10682 10692 10696 10701 10701 10705 10708 10712 10714 10715 10709 10708 10714 10713 10712 10712 10713 10715 10714
10713 10706 10698 10689 10685 10680 10674 10667 10666 10663 10665 10664 10660 10655 10649 10643 10639 10634 10634 10637 10638 10640 10645 10657 10657 10655 10667 10670 10680 10683 10686 10691 10694 10701 10705 10704 10707 10693 10705 10704 10703 10704 10706 10706 10707
10685 10680 10669 10667 10663 10649 10640 10637 10636 10632 10635 10619 10618 10617 10618 10616 10612 10612 10606 10606 10610 10615 10624 10631 10636 10638 10645 10649 10658 10663 10669 10675 10682 10688 10695 10690 10701 10684 10694 10696 10696 10696 10698 10698 10699
10661 10654 10642 10639 10632 10624 10616 10610 10601 10603 10591 10583 10577 10577 10579 10579 10577 10582 10583 10582 10585 10589 10601 10605 10612 10619 10624 10632 10639 10646 10649 10659 10668 10673 10681 10681 10688 10677 10683 10687 10688 10689 10690 10690 10691
10637 10632 10619 10615 10605 10594 10582 10574 10573 10569 10558 10547 10542 10535 10540 10540 10545 10546 10551 10558 10560 10562 10571 10580 10593 10598 10605 10614 10614 10623 10632 10645 10652 10658 10666 10670 10676 10669 10673 10677 10678 10681 10682 10683 10683
10609 10601 10597 10588 10577 10565 10553 10547 10535 10529 10520 10515 10511 10501 10508 10507 10511 10513 10516 10526 10530 10536 10543 10554 10571 10576 10583 10588 10597 10609 10619 10618 10630 10644 10653 10659 10662 10655 10661 10667 10669 10672 10673 10675 10676
10584 10569 10560 10555 10545 10535 10526 10516 10503 10490 10485 10472 10473 10472 10473 10475 10470 10482 10485 10492 10498 10507 10515 10531 10543 10556 10560 10565 10577 10590 10592 10600 10613 10628 10638 10643 10646 10643 10651 10655 10659 10662 10664 10666 10668
10553 10538 10529 10518 10508 10498 10488 10485 10469 10453 10445 10437 10440 10442 10443 10442 10438 10441 10452 10459 10466 10476 10487 10501 10511 10528 10531 10549 10555 10563 10572 10580 10590 10608 10621 10629 10633 10631 10638 10643 10648 10652 10655 10658 10661
10513 10498 10486 10478 10467 10455 10450 10444 10432 10424 10412 10399 10404 10404 10408 10405 10409 10409 10419 10423 10437 10446 10456 10466 10482 10497 10514 10522 10524 10532 10547 10558 10571 10591 10603 10614 10622 10622 10625 10631 10635 10641 10645 10648 10652
10465 10462 10442 10440 10425 10413 10406 10411 10395 10392 10383 10367 10364 10369 10367 10372 10371 10381 10389 10397 10402 10415 10424 10434 10451 10466 10481 10491 10498 10507 10527 10539 10553 10566 10587 10603 10615 10609 10611 10613 10620 10629 10636 10639 10643
10425 10423 10411 10403 10386 10371 10365 10368 10359 10353 10350 10342 10336 10334 10338 10341 10343 10360 10362 10365 10370 10380 10392 10405 10422 10435 10448 10460 10472 10486 10503 10517 10531 10550 10574 10592 10593 10592 10594 10597 10605 10618 10625 10630 10634
10381 10380 10376 10367 10355 10340 10332 10331 10327 10319 10315 10316 10312 10310 10303 10314 10314 10324 10330 10335 10341 10353 10361 10375 10390 10400 10418 10429 10445 10462 10475 10492 10512 10535 10556 10565 10574 10570 10572 10581 10597 10609 10614 10620 10624
10346 10342 10346 10335 10324 10309 10294 10295 10299 10289 10292 10288 10284 10281 10280 10286 10288 10290 10299 10309 10316 10325 10332 10346 10359 10370 10390 10398 10413 10429 10453 10474 10494 10516 10537 10544 10559 10560 10566 10575 10585 10593 10599 10606 10614
10312 10308 10314 10313 10302 10279 10264 10271 10267 10266 10263 10264 10256 10259 10258 10250 10259 10267 10273 10285 10294 10302 10311 10318 10328 10344 10355 10367 10383 10404 10454 10455 10473 10493 10511 10529 10543 10534 10549 10561 10569 10579 10586 10596 10603